Theta_e
289 288 287 287 286 287 287 288 288 288 287 287 287 286 286 286 286 285 286 285 286 286 284 284 284 284 284 283 284 283 282 281 281 281 281 281 281 281 280 279 279 279 279 278 278 278 278 278 278 278 279 277 277 277 277 277 277 276 276 277 277 278
289 288 287 286 286 286 287 287 287 287 287 286 286 285 284 284 284 284 284 284 285 284 283 282 283 283 282 282 282 281 281 281 281 280 280 280 280 280 279 279 278 278 278 278 278 277 277 277 278 278 278 276 276 276 276 277 276 275 275 275 276 278
289 288 287 286 285 286 286 287 286 286 286 285 284 284 283 283 283 283 283 283 283 283 282 282 282 282 282 282 281 281 281 281 281 280 280 280 280 279 279 278 278 277 277 277 277 277 277 277 276 277 276 276 275 275 276 276 275 275 274 275 274 275
288 287 286 285 285 285 285 286 285 284 284 284 283 283 283 283 282 283 283 282 283 282 282 281 281 282 282 281 281 281 280 280 280 280 280 279 279 279 279 278 278 277 277 277 277 276 276 276 276 275 275 275 275 275 278 277 274 274 274 274 274 274
288 287 286 285 284 284 284 284 284 284 283 283 283 283 282 282 283 283 282 282 282 281 281 281 281 281 280 280 280 280 280 280 280 280 279 279 279 278 279 278 278 277 277 276 277 276 275 275 275 275 274 274 274 274 274 275 274 274 274 273 273 274
287 286 285 284 284 284 284 284 283 283 283 283 283 282 282 282 282 282 282 281 281 280 280 280 280 280 279 279 279 279 279 279 280 280 279 278 278 278 278 277 277 277 276 276 275 275 274 275 274 274 274 275 274 274 274 274 273 273 273 274 273 273
286 286 285 284 284 284 283 283 283 283 283 283 283 282 282 282 282 282 281 280 280 279 279 279 279 279 278 278 278 278 278 278 279 279 278 278 277 277 277 276 275 275 276 276 275 275 274 274 274 274 274 274 274 274 274 273 273 273 273 273 273 277
287 285 285 285 284 284 283 283 283 283 283 283 282 282 282 282 281 281 281 280 279 279 278 278 278 278 278 278 278 279 279 280 279 279 278 278 278 276 276 275 275 275 274 274 274 274 273 273 273 274 274 274 274 274 273 273 273 273 274 273 274 274
286 286 285 285 284 283 283 283 283 283 283 282 282 282 282 281 281 281 280 279 279 279 278 278 278 278 278 278 279 280 280 279 279 278 278 278 277 276 275 274 274 274 274 274 274 274 274 273 274 273 274 274 273 273 272 272 273 273 273 274 274 274
287 286 285 285 284 284 283 283 283 283 283 283 282 282 282 282 281 280 280 279 279 279 279 278 278 278 279 279 279 280 280 279 279 278 278 277 276 275 275 275 275 274 274 274 274 273 273 273 273 273 273 273 272 272 272 273 273 273 274 274 274 274
287 286 285 285 284 283 283 283 283 283 282 282 282 282 281 281 280 280 280 279 279 279 278 278 278 279 279 280 280 280 280 279 279 278 278 277 277 277 276 276 275 274 273 273 273 273 273 273 273 273 272 272 273 273 274 274 274 274 273 273 273 273
287 287 286 285 285 284 283 283 283 283 283 282 282 282 281 281 280 280 279 279 279 279 279 279 280 280 280 280 280 280 280 279 278 277 277 277 277 277 276 276 274 273 273 273 272 272 273 273 273 276 278 277 273 272 274 274 273 273 273 273 272 273
287 287 287 287 286 285 284 284 283 283 283 283 282 282 281 281 280 280 279 279 279 279 279 279 279 280 280 280 281 280 279 278 278 277 277 277 276 276 275 275 274 273 273 273 272 272 273 273 273 277 278 278 279 275 273 272 272 273 272 272 272 272
288 288 288 288 286 285 284 284 284 283 283 283 282 282 281 281 280 280 279 279 279 279 279 280 280 281 281 281 281 280 279 278 278 277 277 276 276 275 274 273 272 272 272 272 272 271 272 272 276 278 278 279 279 279 275 272 272 272 273 272 272 272
289 289 289 288 286 285 285 285 283 283 283 283 282 282 281 280 280 280 279 279 279 279 280 280 281 281 281 281 281 280 279 278 278 277 276 275 275 273 272 272 272 271 271 271 271 270 271 271 277 278 279 279 279 279 278 273 275 274 273 273 272 272
288 288 288 288 287 286 285 284 284 284 283 283 282 281 281 280 280 280 280 280 280 280 280 280 280 281 281 281 280 279 278 277 276 276 274 273 272 272 271 270 271 271 271 271 270 270 270 270 275 278 279 279 279 279 278 274 275 274 274 274 273 273
286 286 286 287 286 285 285 284 284 283 282 282 282 282 281 281 280 280 280 280 280 280 280 280 280 280 280 280 279 278 277 276 274 274 273 272 272 272 271 271 270 270 270 269 269 269 269 270 275 277 278 278 278 278 278 275 275 274 274 274 274 274
287 286 286 286 286 286 285 284 283 283 282 282 282 282 281 281 280 280 280 280 279 280 280 280 280 279 279 278 277 276 276 275 274 273 273 272 271 269 269 268 269 269 269 269 268 268 268 268 276 276 277 278 278 278 275 274 273 273 273 273 273 273
286 286 285 284 285 285 285 284 284 283 282 282 282 281 281 281 280 280 280 280 280 280 280 280 280 279 279 278 277 276 276 275 273 273 272 271 271 271 270 270 269 269 268 268 267 267 267 265 272 276 277 277 278 276 272 273 272 272 271 271 270 270
285 284 285 284 284 285 284 284 284 283 282 282 281 281 280 280 281 280 280 280 280 280 280 280 280 279 279 278 277 277 277 275 274 273 272 272 271 271 270 269 268 267 267 267 267 267 265 265 270 274 275 276 277 276 272 271 270 269 270 270 271 271
285 284 284 284 283 283 284 284 284 283 282 281 281 281 281 281 281 280 280 281 281 281 280 280 280 280 279 279 278 277 276 275 274 274 272 271 271 270 268 268 267 266 265 265 266 269 267 264 268 273 275 276 276 275 273 271 270 269 269 269 269 270
283 282 283 283 283 282 283 284 284 283 282 281 281 281 281 281 281 281 281 281 280 280 280 280 280 280 279 279 278 277 276 275 273 272 271 270 270 269 268 267 267 266 265 264 264 265 266 264 263 267 273 274 276 277 272 270 269 268 268 269 269 269
284 284 283 283 282 282 282 283 283 282 282 281 281 281 282 282 281 280 280 280 279 279 280 280 280 280 279 279 278 277 275 274 274 271 270 269 268 267 266 266 265 265 264 264 264 263 263 264 263 265 272 274 275 276 275 271 270 270 270 269 269 269
282 282 281 281 281 282 282 282 282 281 280 280 280 282 282 279 280 280 279 279 280 279 279 279 279 279 279 277 276 274 273 272 272 271 269 268 267 267 266 264 264 264 263 263 263 263 262 264 267 263 269 273 275 276 277 273 271 271 270 269 269 269
282 282 281 281 280 281 281 281 280 279 278 279 281 280 279 280 279 279 279 279 279 278 278 278 277 277 277 275 275 274 273 270 269 268 268 267 266 266 265 264 263 263 263 262 263 263 263 263 265 270 267 271 274 276 276 276 274 275 273 270 269 270
282 281 280 280 279 279 280 280 279 278 278 280 281 277 276 276 277 278 278 278 277 277 276 275 274 274 274 274 273 272 271 269 268 267 267 266 266 265 264 263 263 262 262 263 263 263 263 263 263 267 271 270 273 275 276 276 277 277 273 272 272 272
281 280 279 278 277 277 278 277 279 278 278 280 278 278 278 277 276 277 277 276 275 274 271 269 271 270 269 270 272 271 270 267 266 266 264 265 265 265 265 264 263 263 263 263 263 264 264 263 263 263 267 272 273 274 275 276 276 276 277 274 273 273
279 278 277 276 275 276 276 276 277 278 280 278 275 275 275 275 275 275 276 274 273 271 268 269 266 265 266 267 269 271 270 269 267 267 265 265 265 265 265 265 264 264 264 264 264 264 264 264 263 263 264 268 271 273 274 275 276 276 276 276 274 275
278 278 276 276 274 276 275 275 276 279 277 275 276 275 273 271 274 274 272 272 271 268 268 269 268 265 264 264 265 266 267 267 267 266 265 265 265 265 265 265 265 265 265 264 264 264 264 263 263 263 264 264 265 267 269 271 272 275 275 274 273 274
278 276 276 278 277 276 275 275 276 276 275 272 271 270 271 271 272 272 272 270 268 268 267 268 267 266 265 264 265 266 266 266 266 266 267 266 266 265 265 265 265 266 266 265 265 264 263 263 263 264 264 265 265 266 267 267 268 269 270 271 270 270
277 277 277 278 276 275 274 274 273 272 273 270 266 268 270 270 270 269 269 267 266 266 265 265 264 265 265 263 263 264 265 266 266 267 267 265 265 267 267 266 267 267 266 266 265 264 264 263 263 264 269 267 270 267 267 267 268 269 270 272 273 271
275 275 276 275 275 274 273 272 271 270 271 268 266 268 269 268 267 266 266 265 265 263 263 263 263 262 263 262 262 261 262 267 271 268 265 264 270 273 273 272 268 267 266 266 266 267 266 265 266 270 273 273 273 274 274 273 273 274 272 273 275 274
274 274 274 274 274 273 272 270 269 268 268 269 268 268 269 268 269 267 267 267 266 267 265 264 264 264 263 263 262 262 262 262 264 272 273 272 271 272 274 274 274 274 273 268 265 268 273 272 272 273 274 274 275 275 275 275 276 276 276 276 274 270
273 273 273 273 272 271 269 268 267 267 267 266 266 266 267 267 269 269 268 268 265 267 265 264 264 263 263 262 262 262 262 262 263 263 270 273 273 273 273 273 274 274 274 274 271 267 267 272 273 274 274 275 275 275 276 276 276 277 277 276 276 268
272 271 271 271 269 269 267 266 264 264 263 263 264 264 265 264 265 266 266 266 266 265 265 264 264 263 263 262 262 261 262 262 262 263 263 267 273 274 273 273 274 274 275 275 275 274 271 270 272 274 275 275 276 276 276 276 276 276 276 276 272 267
271 270 270 268 267 267 265 263 260 260 260 260 262 262 264 263 264 264 265 265 263 264 262 263 261 263 263 262 262 261 261 261 262 262 263 263 264 269 272 274 275 274 275 275 275 275 275 275 275 275 275 275 275 275 275 275 273 275 276 274 268 265
268 266 265 266 265 264 261 259 257 258 258 260 260 261 261 261 262 262 263 263 263 261 261 261 261 261 260 261 260 261 261 261 261 262 262 261 263 264 265 265 266 270 273 272 272 273 274 275 275 275 275 275 275 275 274 274 271 270 270 271 266 264
264 263 262 262 262 261 259 256 257 257 257 257 258 258 259 260 261 260 260 260 260 260 261 260 260 260 260 259 259 259 260 260 260 260 260 261 260 260 260 261 263 264 267 270 271 272 272 272 273 273 274 274 274 274 274 269 268 267 267 266 264 263
Wind_Speed
11 10 10 8 7 7 7 7 7 6 6 7 7 9 8 8 7 6 7 6 6 6 7 8 8 7 7 7 7 7 8 8 7 7 7 6 5 6 6 5 5 4 4 4 4 4 4 3 2 1 1 3 4 4 4 2 1 2 2 2 2 1
11 11 11 11 10 10 8 8 6 7 7 7 7 6 6 6 7 7 8 7 7 7 7 6 7 7 7 7 8 8 7 7 7 7 7 6 5 5 5 4 4 4 4 4 4 4 4 4 2 2 2 4 3 4 3 1 2 2 2 2 2 1
11 10 9 8 7 7 7 8 8 7 6 7 7 9 8 8 7 7 7 7 7 8 9 8 8 8 7 7 6 7 7 7 7 6 6 6 5 5 4 4 4 4 4 4 4 4 4 4 3 2 3 3 3 3 3 1 2 2 2 2 3 3
10 9 8 7 8 9 9 8 7 7 7 7 8 8 7 8 8 7 7 6 8 8 8 8 7 7 7 7 7 7 7 7 7 6 6 6 5 5 5 5 4 4 4 4 4 4 4 4 4 3 3 3 3 2 2 1 1 2 2 2 2 3
11 11 12 11 11 9 9 8 8 8 7 7 7 8 8 7 8 7 7 8 8 8 7 8 7 7 7 8 7 7 7 6 6 6 7 6 5 4 5 5 5 5 5 5 4 4 4 4 3 2 3 3 3 1 1 2 1 1 1 2 2 2
9 10 11 11 11 11 11 9 7 7 7 7 8 9 8 8 7 8 8 8 8 8 8 8 8 8 7 8 7 8 6 7 6 6 5 5 4 6 5 5 5 5 5 5 5 4 4 4 3 3 3 2 1 1 1 1 1 1 1 1 2 2
12 13 12 11 10 9 8 9 9 9 8 7 8 8 8 8 7 8 8 8 9 9 9 8 8 8 8 7 7 8 7 7 7 6 6 7 6 5 6 4 4 5 5 6 5 4 4 4 3 2 1 1 0 0 1 2 1 1 2 2 2 3
11 9 10 10 10 10 9 9 9 8 8 8 7 9 9 8 7 8 9 9 10 9 9 9 8 8 9 8 8 8 8 8 7 6 6 7 8 6 5 6 4 5 5 5 5 4 4 3 2 1 1 0 0 0 1 1 2 2 2 3 3 3
13 13 11 11 10 10 10 10 10 9 9 8 8 8 9 9 9 9 9 9 9 9 9 9 9 9 8 8 9 8 8 7 7 7 7 7 7 8 7 5 5 4 5 5 4 4 4 2 1 1 1 1 1 2 3 2 2 2 2 2 3 3
12 12 13 12 11 10 9 9 9 10 10 11 9 9 9 8 9 9 9 9 9 9 10 9 8 8 8 7 8 8 8 8 8 7 7 7 7 7 7 7 7 5 4 5 4 4 3 2 1 1 2 2 2 2 3 2 3 3 2 2 3 3
14 14 13 12 10 12 12 11 10 9 8 8 9 9 10 9 10 10 10 9 10 10 9 8 7 7 8 7 8 8 8 8 8 8 7 7 7 6 7 7 6 7 5 4 4 4 4 4 2 2 2 1 1 0 1 1 1 2 2 3 3 3
11 12 12 11 14 13 12 12 12 12 12 12 11 10 9 10 10 11 10 10 10 8 9 9 8 9 9 8 9 9 9 9 8 8 8 7 7 7 7 7 5 6 6 6 5 4 4 3 2 3 5 4 3 2 2 1 2 2 3 3 3 3
10 10 12 14 15 15 14 12 11 10 11 10 11 11 10 10 11 10 10 11 9 9 9 9 9 9 10 9 9 7 8 9 8 7 7 7 8 8 7 7 7 5 5 6 5 5 5 4 3 7 8 8 9 5 3 2 2 2 3 3 4 5
12 14 15 16 14 14 12 12 12 12 13 12 12 11 9 10 10 11 10 10 9 9 10 10 10 10 10 9 9 9 8 8 8 7 7 7 7 7 6 6 6 6 5 5 5 5 5 4 7 10 9 9 9 7 4 2 2 2 3 3 4 4
14 15 13 10 12 13 14 13 11 13 12 12 11 9 10 11 10 10 10 10 10 10 10 10 11 10 9 9 9 9 8 9 8 8 8 8 6 6 6 7 7 6 5 6 6 5 4 4 8 10 10 10 9 9 6 2 2 2 3 4 4 4
8 8 10 10 10 10 9 10 12 10 9 10 9 11 10 11 10 10 11 10 11 10 11 11 10 10 10 9 9 9 9 9 10 8 6 6 6 6 5 5 6 6 6 6 6 5 4 4 7 10 10 10 9 8 6 2 4 5 5 5 5 4
8 7 7 8 9 9 10 10 9 8 9 10 11 11 11 11 11 11 11 11 10 10 10 11 10 10 9 9 9 9 9 10 8 7 7 8 8 8 9 8 7 6 6 5 5 6 5 5 8 10 10 9 9 8 7 3 4 5 6 6 6 6
11 10 9 6 7 8 9 10 8 10 10 9 11 10 10 11 11 12 10 9 9 11 11 10 10 10 9 9 9 10 10 9 10 10 7 7 5 4 4 4 4 6 7 6 5 5 6 4 9 9 9 10 9 9 3 3 5 6 6 6 7 6
7 7 6 6 8 9 9 8 9 9 9 10 10 10 10 10 11 11 10 10 10 10 10 10 10 10 10 10 11 11 11 10 9 7 6 7 7 7 7 8 7 6 6 6 6 6 5 4 7 9 10 10 10 7 2 4 4 5 5 5 4 4
5 5 8 7 7 7 7 8 9 9 9 9 9 10 9 10 12 10 10 10 10 10 10 11 11 11 11 10 12 12 11 9 7 8 8 10 9 9 9 7 6 5 6 7 7 7 6 5 6 10 9 10 10 8 4 4 3 4 5 5 6 5
7 7 6 7 7 6 8 8 9 9 9 8 9 9 10 11 10 10 11 12 12 11 10 9 10 11 11 12 12 11 11 11 11 9 8 8 7 7 6 6 7 6 5 5 6 7 7 5 6 9 9 10 10 8 4 5 4 5 5 4 5 5
8 6 8 8 8 7 8 8 9 9 9 8 8 9 11 11 12 13 11 8 8 8 9 9 10 11 11 13 11 9 10 7 7 8 9 7 7 7 6 6 7 7 6 5 5 6 5 5 5 6 12 11 11 12 6 4 5 6 6 6 5 5
8 10 9 8 8 7 7 8 8 8 7 8 8 10 12 11 8 7 7 7 7 7 9 8 10 12 11 10 10 9 7 8 9 8 8 8 7 6 6 7 6 6 6 5 5 5 5 5 5 7 12 12 13 14 12 6 7 6 6 5 6 5
5 5 5 5 8 7 7 8 8 7 7 8 10 13 9 5 6 6 6 7 8 8 8 9 8 9 10 7 8 8 8 6 7 8 8 7 7 8 8 6 5 6 6 4 5 5 6 7 10 7 11 14 15 14 17 8 8 8 6 6 6 6
7 7 7 6 7 6 6 8 8 7 7 9 13 8 5 6 5 6 7 7 7 8 8 8 8 8 7 8 9 9 9 7 7 7 8 8 8 8 8 7 6 6 6 5 6 6 6 7 8 13 10 13 15 16 16 17 12 14 9 7 7 8
6 7 5 6 6 6 7 9 8 7 8 12 8 4 5 5 5 6 6 7 6 6 7 7 7 7 6 8 8 7 8 8 7 7 8 8 8 8 8 6 7 6 7 8 7 6 7 7 7 10 15 11 15 15 17 17 18 17 10 9 7 7
8 7 6 5 6 6 7 6 9 7 8 8 4 5 6 6 6 7 7 7 6 6 5 5 6 6 6 6 8 9 8 7 8 8 6 8 8 8 9 8 8 9 9 7 8 8 7 7 7 7 11 16 14 15 16 17 17 18 18 11 8 8
6 6 6 4 5 5 5 5 6 8 8 2 4 4 5 5 7 7 8 7 6 6 6 6 5 5 5 6 6 8 8 10 10 10 8 8 8 8 9 9 8 9 8 9 8 8 7 7 7 7 7 8 11 11 15 17 17 17 18 16 11 15
6 6 6 6 5 5 5 6 6 8 2 2 3 4 5 5 6 6 5 6 6 5 6 7 7 6 4 5 4 5 6 7 7 7 8 9 9 9 9 8 9 9 9 10 9 7 6 7 7 7 6 6 6 6 7 9 10 15 15 11 9 10
6 6 6 6 6 5 5 6 8 5 1 1 3 4 5 5 5 5 5 4 4 5 5 6 7 7 6 6 6 7 6 6 7 9 11 13 13 12 11 10 11 12 11 11 8 7 6 7 7 7 8 8 7 7 7 6 6 6 5 6 5 4
7 7 7 7 4 5 5 6 3 2 3 2 3 4 4 4 3 2 1 2 3 4 3 4 4 5 5 5 4 4 4 6 7 9 7 4 3 7 9 10 10 10 8 7 8 9 8 7 9 10 10 10 12 11 8 8 8 7 7 9 12 9
6 6 6 4 3 4 4 3 3 3 4 4 4 4 4 3 3 3 3 3 4 3 3 3 3 3 3 4 4 4 5 5 7 7 5 5 5 12 13 9 8 6 6 7 7 8 10 11 9 10 16 17 17 18 18 16 15 14 11 12 16 9
2 3 2 0 0 1 2 3 2 3 3 4 4 5 5 5 6 5 6 6 6 6 6 5 6 5 5 5 5 5 6 5 5 9 12 10 8 9 10 12 11 10 12 9 6 7 11 8 8 12 14 16 17 18 18 18 17 18 18 17 10 6
2 1 0 1 1 2 3 4 4 3 2 3 4 4 5 5 6 6 5 5 4 5 4 4 4 4 5 5 4 5 5 5 6 6 8 11 11 11 12 12 12 11 10 12 10 6 4 8 11 12 13 14 16 17 18 18 19 19 19 17 17 8
2 2 2 2 3 3 4 5 4 4 3 2 3 3 4 4 4 4 2 1 4 5 5 5 5 5 5 5 5 4 5 5 5 6 6 5 12 16 15 14 14 15 15 14 14 13 11 10 11 15 16 17 17 18 18 18 18 18 18 19 11 7
4 4 4 4 4 4 5 5 4 4 3 2 2 2 2 2 1 1 1 0 1 4 3 4 4 5 4 5 5 5 5 5 5 6 4 4 3 6 9 12 14 14 14 14 15 15 15 15 16 15 15 16 17 18 18 16 13 18 20 16 8 7
5 5 4 5 4 5 5 4 3 4 4 4 3 3 2 2 2 1 3 5 3 2 3 4 3 4 4 4 4 5 4 5 3 3 4 3 4 4 5 3 3 6 9 8 7 10 12 13 15 16 17 18 16 16 16 16 10 10 9 9 5 6
6 4 3 4 5 5 6 4 4 4 4 4 3 4 4 3 2 3 3 3 3 4 4 4 3 3 4 3 3 3 3 2 2 2 1 0 1 1 2 2 0 0 3 7 8 9 11 13 14 13 13 13 14 15 15 10 9 8 8 7 5 6
Wind_Direction
167 166 161 157 157 157 160 159 158 156 161 161 161 159 156 150 144 136 131 134 137 138 137 134 129 128 127 129 126 126 127 129 129 125 127 121 121 120 121 121 123 127 135 143 160 158 157 145 132 141 82 93 70 85 101 75 51 47 2 333 82 336
168 166 163 162 162 160 162 160 157 161 162 155 152 144 139 136 136 137 137 139 134 128 120 118 123 127 130 131 129 127 130 131 125 125 122 131 124 124 124 127 140 147 156 161 156 151 139 136 139 108 84 88 97 105 84 49 67 45 13 353 349 336
165 159 156 151 147 154 157 162 165 163 156 158 155 150 148 143 145 139 142 134 133 132 133 134 131 128 125 122 121 123 124 122 122 127 134 121 126 131 129 137 149 152 151 138 122 121 124 110 91 78 86 99 97 102 112 40 61 50 343 23 345 344
160 152 145 147 152 163 164 163 161 165 166 161 151 147 153 149 149 146 144 137 138 138 135 133 130 128 126 125 124 124 126 129 132 134 126 128 141 138 143 147 155 137 126 118 125 126 120 112 105 91 82 87 61 38 83 88 51 40 1 21 354 342
165 162 161 164 167 167 164 167 171 169 165 158 158 153 160 154 151 147 144 141 141 140 136 133 134 134 133 130 133 133 137 135 131 134 134 141 151 147 143 145 138 136 132 133 130 118 109 105 97 82 81 54 73 50 16 18 48 26 5 356 318 322
153 155 166 168 172 175 176 170 167 165 169 165 158 161 159 154 152 147 143 143 142 142 138 139 140 138 141 139 143 143 144 140 139 142 142 149 144 132 127 129 139 135 137 132 123 117 111 88 81 60 71 85 68 36 2 347 358 329 300 303 302 308
169 178 176 175 175 173 170 172 175 171 172 168 164 161 159 154 153 149 151 150 148 149 146 148 149 148 149 146 146 150 148 148 152 156 155 145 137 135 132 137 142 138 131 126 124 118 109 106 94 80 41 54 60 144 275 284 284 298 281 272 271 284
174 170 178 177 179 177 174 175 175 174 173 174 165 161 162 163 154 155 153 156 153 155 154 154 155 158 157 156 156 158 157 154 157 151 146 144 145 147 148 149 150 143 135 127 123 117 113 112 114 110 146 204 332 337 284 255 249 257 273 277 274 267
183 184 178 180 177 177 178 176 177 177 174 173 173 168 163 162 158 159 159 162 160 158 161 161 165 164 163 163 162 159 156 155 152 148 149 150 150 149 150 149 142 143 134 136 121 117 118 113 119 152 193 200 225 226 234 251 261 258 257 258 254 262
179 176 182 178 180 175 177 180 181 180 178 176 173 170 165 165 162 164 166 165 164 166 168 168 167 167 167 163 159 159 155 151 151 150 149 146 153 152 152 153 146 145 135 133 129 125 117 122 146 196 204 198 199 225 253 241 240 250 270 275 285 279
186 183 180 181 172 178 180 179 181 177 179 177 177 172 174 167 163 169 170 169 170 174 168 166 169 168 168 165 160 158 157 154 151 150 150 154 154 151 151 151 148 143 141 131 129 132 135 153 175 190 171 144 312 330 237 273 282 291 274 279 283 283
181 181 176 176 183 182 182 182 183 183 180 181 179 176 174 164 172 172 174 176 177 169 168 171 171 172 172 167 165 164 159 154 152 153 157 160 155 148 148 147 151 151 149 148 149 159 166 168 175 188 181 193 190 234 252 275 277 267 269 271 281 282
180 176 182 188 188 188 186 185 182 179 183 182 179 180 176 169 173 176 177 180 175 172 169 169 177 174 176 171 162 158 157 158 156 159 161 158 157 155 153 152 155 161 156 158 164 171 176 177 181 202 209 221 226 209 205 220 246 260 273 275 272 273
184 187 192 193 190 184 181 181 181 180 189 182 181 179 168 173 177 178 181 179 176 175 174 176 176 178 176 168 170 163 161 158 160 166 166 162 160 159 151 160 168 162 162 162 169 181 183 182 193 207 214 224 231 226 200 199 232 252 255 261 263 270
191 193 193 185 183 185 189 178 175 188 185 181 179 162 173 179 180 179 181 183 181 180 179 177 179 180 175 176 169 163 159 164 169 169 169 176 167 151 164 175 167 172 168 167 178 189 193 187 208 210 216 227 234 238 230 178 239 248 254 259 266 269
186 187 186 187 185 182 171 173 182 183 174 171 162 173 179 177 184 184 187 186 186 181 181 181 179 180 178 171 167 165 169 172 182 179 174 157 155 165 171 178 176 175 176 178 183 190 194 195 208 218 223 229 234 237 235 180 241 250 252 257 261 265
171 165 166 175 173 169 167 179 176 162 167 171 174 179 179 183 184 190 192 191 186 181 183 181 179 180 175 171 169 170 178 183 177 174 175 171 176 177 182 182 183 188 181 183 180 181 197 202 210 221 226 229 234 235 238 218 241 245 252 256 255 258
173 173 182 171 162 169 172 178 166 165 176 169 176 176 181 181 189 197 194 190 185 186 184 177 178 179 175 172 174 178 186 185 183 180 175 171 178 176 160 187 180 187 188 185 177 182 202 211 215 221 229 234 233 235 218 228 239 244 251 253 253 255
162 175 158 158 166 166 175 166 163 165 161 170 178 173 178 182 193 197 191 188 189 188 182 179 179 181 180 177 179 188 190 185 186 179 167 172 181 180 188 192 192 187 182 185 185 191 205 202 223 228 232 234 232 226 177 219 231 241 242 251 257 258
130 142 150 158 162 165 156 156 157 156 162 170 171 172 181 185 198 191 185 191 191 189 186 187 183 183 184 181 189 193 194 188 183 183 176 180 183 192 196 184 182 186 183 186 196 194 196 208 216 226 233 233 230 219 188 205 221 239 245 250 250 247
141 140 132 139 149 159 151 151 149 152 163 168 172 175 183 195 194 185 192 198 194 191 188 186 185 186 186 190 196 191 187 187 188 182 176 186 183 191 169 175 181 188 190 192 193 195 196 203 219 228 236 235 232 224 175 196 203 232 241 246 249 245
117 126 143 156 165 152 145 146 150 160 164 174 166 177 195 199 195 199 199 191 185 185 187 186 188 190 189 197 195 188 192 178 161 171 179 185 180 176 176 179 183 188 201 186 180 201 196 194 216 229 238 238 233 225 194 176 208 229 238 238 241 242
150 160 166 164 154 149 148 146 149 166 170 166 174 197 206 203 194 188 186 179 181 185 188 187 188 192 197 193 190 182 174 174 178 169 173 178 173 168 175 183 187 189 199 189 190 189 209 198 211 232 235 237 232 225 215 193 215 224 228 231 239 241
126 123 127 143 148 147 149 150 159 171 163 173 196 213 205 172 181 177 173 180 188 190 188 191 194 191 190 181 163 168 182 182 169 174 173 168 172 180 188 183 187 193 201 200 196 197 204 210 212 218 238 235 231 225 221 206 213 220 223 230 233 237
143 151 150 146 147 149 152 150 160 167 173 185 215 206 166 182 171 174 180 184 188 192 192 191 185 186 178 177 177 174 180 168 165 168 164 168 177 183 188 190 188 192 207 213 216 210 206 206 216 218 220 232 229 226 224 223 222 224 223 220 228 231
141 140 143 142 148 152 156 157 162 172 179 213 216 157 170 168 176 169 179 189 193 188 191 190 188 181 175 175 169 170 165 171 171 166 174 174 176 182 191 197 190 197 210 216 223 213 210 207 204 223 223 224 230 228 226 227 229 227 223 230 238 235
150 141 137 144 151 160 166 170 162 175 197 226 165 181 176 178 166 172 183 189 189 187 180 165 174 177 173 171 166 170 175 170 164 173 184 173 183 186 196 202 189 203 212 214 221 218 208 201 200 210 226 225 226 228 228 228 230 233 234 236 232 229
127 136 142 153 164 162 167 179 167 175 219 175 166 179 168 166 168 179 193 188 182 177 158 165 170 166 170 171 184 185 181 177 179 183 178 182 195 195 199 201 196 207 207 218 222 215 204 192 192 205 215 227 228 230 230 230 231 234 236 238 244 246
137 155 161 178 200 179 179 183 202 214 187 144 163 147 153 167 185 193 186 186 180 168 166 176 181 176 172 177 176 179 176 175 179 181 182 189 193 199 204 204 200 206 208 216 216 206 190 191 195 200 205 214 220 225 229 234 238 237 238 240 241 249
164 172 176 197 205 190 186 192 212 214 166 69 111 133 140 164 184 200 211 202 182 181 182 187 178 174 182 193 184 186 190 188 185 190 197 192 195 193 203 201 205 206 205 208 198 186 192 204 201 201 196 202 206 213 216 222 226 226 226 233 229 226
179 190 184 210 195 176 184 206 207 145 164 138 106 120 138 167 173 181 192 168 164 188 174 183 177 188 184 193 208 231 219 197 199 211 228 246 211 215 207 204 214 214 208 189 183 182 202 207 212 215 198 198 200 199 203 211 213 213 216 218 226 234
182 184 198 205 179 171 173 174 172 161 154 140 130 124 140 157 155 182 201 169 173 172 158 182 188 179 180 182 201 224 273 270 223 218 221 251 247 229 233 222 222 212 186 197 213 189 196 207 214 200 208 212 215 216 213 214 216 218 212 218 235 234
167 179 196 175 87 83 98 96 114 119 130 135 149 151 166 166 185 198 201 182 197 187 183 180 190 190 189 188 184 197 216 255 288 249 236 231 231 241 242 238 235 220 204 196 214 226 223 219 205 208 212 218 221 222 223 224 224 227 229 231 236 219
182 173 112 95 106 102 95 83 64 88 103 123 144 156 166 180 186 211 212 202 201 187 186 185 184 179 187 199 183 190 202 222 241 274 252 241 239 236 238 243 246 242 230 219 209 195 250 235 230 226 226 229 228 230 232 235 237 236 237 239 242 205
163 152 143 125 115 103 99 87 46 32 36 71 117 136 154 171 182 214 229 186 181 180 180 176 182 186 181 194 190 197 189 205 223 242 263 252 237 237 237 236 238 241 242 239 235 220 204 211 227 237 238 236 235 236 238 240 243 243 243 244 236 180
108 101 100 97 103 110 95 79 27 9 354 19 73 112 139 152 156 159 163 342 162 157 173 178 182 177 189 186 191 194 193 208 206 226 238 223 233 243 241 238 238 240 241 243 243 243 244 238 233 234 235 235 239 240 240 241 244 245 243 241 202 194
95 77 73 95 96 89 81 66 8 351 355 17 45 71 70 71 73 69 66 58 93 132 154 160 157 163 166 171 184 192 200 209 217 209 231 236 218 222 230 251 292 287 260 256 266 274 271 266 260 256 253 250 243 238 237 242 246 243 243 234 171 195
87 85 72 79 85 89 87 51 5 357 3 24 57 73 79 80 88 83 87 77 68 81 94 108 119 133 150 162 163 161 171 155 151 171 194 9 318 298 313 330 6 63 322 294 279 268 258 259 264 263 257 251 247 245 243 243 238 234 226 218 204 188